TimeMDT,TemperatureF,Dew PointF,Humidity,Sea Level PressureIn,VisibilityMPH,Wind Direction,Wind SpeedMPH,Gust SpeedMPH,PrecipitationIn,Events,Conditions,WindDirDegrees,DateUTC
12:53 AM,55.0,48.9,80,29.95,10.0,ESE,9.2,-,N/A,,Clear,110,2013-06-17 06:53:00
1:53 AM,52.0,48.9,89,29.95,10.0,East,8.1,-,N/A,,Clear,90,2013-06-17 07:53:00
2:53 AM,52.0,50.0,93,29.96,10.0,SE,4.6,-,N/A,,Clear,130,2013-06-17 08:53:00
3:53 AM,52.0,51.1,97,29.99,10.0,East,5.8,-,N/A,,Clear,100,2013-06-17 09:53:00
4:53 AM,51.1,50.0,96,29.99,9.0,SSE,6.9,-,N/A,,Clear,160,2013-06-17 10:53:00
5:53 AM,52.0,51.1,97,30.00,6.0,South,8.1,-,N/A,,Clear,180,2013-06-17 11:53:00
6:53 AM,55.9,52.0,87,30.01,10.0,South,6.9,-,N/A,,Clear,190,2013-06-17 12:53:00
7:53 AM,63.0,50.0,63,30.01,10.0,South,6.9,-,N/A,,Clear,190,2013-06-17 13:53:00
8:53 AM,69.1,48.0,47,30.03,10.0,North,6.9,-,N/A,,Clear,360,2013-06-17 14:53:00
9:53 AM,72.0,46.9,41,30.04,10.0,ENE,6.9,-,N/A,,Clear,70,2013-06-17 15:53:00
10:53 AM,75.9,46.9,36,30.02,10.0,ESE,10.4,-,N/A,,Clear,120,2013-06-17 16:53:00
11:53 AM,79.0,46.9,32,30.01,10.0,SE,11.5,21.9,N/A,,Clear,140,2013-06-17 17:53:00
12:53 PM,81.0,46.9,30,30.00,10.0,East,11.5,18.4,N/A,,Clear,90,2013-06-17 18:53:00
1:53 PM,82.0,54.0,38,29.98,10.0,East,20.7,31.1,N/A,,Partly Cloudy,90,2013-06-17 19:53:00
2:53 PM,82.0,53.1,37,29.96,10.0,East,17.3,31.1,N/A,,Clear,90,2013-06-17 20:53:00
3:53 PM,78.1,46.9,33,29.97,10.0,SE,17.3,26.5,N/A,Thunderstorm,Scattered Clouds,140,2013-06-17 21:53:00
4:07 PM,75.2,48.2,38,30.11,10.0,SSE,16.1,25.3,N/A,,Scattered Clouds,150,2013-06-17 22:07:00
4:53 PM,75.0,55.0,50,29.96,10.0,ESE,27.6,33.4,N/A,,Clear,110,2013-06-17 22:53:00
5:04 PM,77.0,53.6,44,30.08,10.0,ESE,32.2,39.1,N/A,Thunderstorm,Clear,120,2013-06-17 23:04:00
5:19 PM,73.4,53.6,50,30.07,10.0,ESE,28.8,40.3,N/A,,Clear,110,2013-06-17 23:19:00
5:31 PM,73.4,53.6,50,30.08,10.0,ESE,23.0,34.5,N/A,Thunderstorm,Clear,110,2013-06-17 23:31:00
5:46 PM,69.8,55.4,60,30.07,10.0,East,19.6,28.8,N/A,,Clear,100,2013-06-17 23:46:00
5:53 PM,70.0,55.9,61,29.95,10.0,ESE,20.7,29.9,N/A,,Clear,110,2013-06-17 23:53:00
6:02 PM,69.8,55.4,60,30.07,10.0,East,24.2,34.5,N/A,Thunderstorm,Clear,100,2013-06-18 00:02:00
6:43 PM,66.2,57.2,73,30.16,5.0,ENE,13.8,-,0.04,Rain-Thunderstorm,Thunderstorms and Rain,60,2013-06-18 00:43:00
6:53 PM,64.0,59.0,84,30.05,5.0,ENE,20.7,26.5,0.08,Rain-Thunderstorm,Light Thunderstorms and Rain,60,2013-06-18 00:53:00
7:18 PM,64.4,57.2,77,30.13,10.0,ENE,24.2,32.2,0.02,Rain,Light Rain,70,2013-06-18 01:18:00
7:53 PM,62.1,52.0,70,29.99,10.0,ESE,17.3,25.3,0.02,,Clear,110,2013-06-18 01:53:00
8:53 PM,59.0,50.0,72,30.02,10.0,ESE,15.0,25.3,N/A,,Clear,120,2013-06-18 02:53:00
9:53 PM,57.0,50.0,77,30.03,10.0,SE,13.8,-,N/A,,Clear,130,2013-06-18 03:53:00
10:53 PM,57.9,50.0,75,30.02,10.0,SSE,15.0,23.0,N/A,,Clear,160,2013-06-18 04:53:00
11:53 PM,60.1,51.1,72,30.01,10.0,South,10.4,-,N/A,,Clear,170,2013-06-18 05:53:00